[[{"header":{"parameterUnit":"m.s-1","parameterCategory":1,"la1":30.2991,"la2":30.254,"lo1":-89.0895,"lo2":-89.0444,"dy":0.0017,"dx":0.0017,"nx":28,"ny":28,"refTime":"2024-11-27T03:00:00:Z","depth":0,"parameterNumber":2,"parameterNumberName":"U-component_of_WINDS"},"data":[0,0,0,0,0,0,0,0,0,0,0,0,0,0,0,0,0,0,0,0,0,0,0,0,0,0,0,0,0,0,0,0,0,0,0,0,0,0,0,0,0,0,0,0,0,0,0,0,0,0,0,0,0,0,0,0,0,0,-0.7389,-0.7389,0,-0.7387,-0.7387,-0.7387,-0.7357,-0.7356,-0.7355,-0.7355,-0.7355,-0.7356,-0.7356,0,0,0,0,0,0,0,0,0,0,0,0,0,-0.7368,-0.7368,-0.7389,-0.7389,-0.7389,-0.7387,-0.7387,-0.7387,-0.7357,-0.7356,-0.7355,-0.7354,-0.7355,-0.7356,-0.7356,0,0,0,0,0,0,0,0,0,0,0,0,0,-0.7373,-0.7368,-0.7389,-0.7374,-0.7372,-0.7387,-0.7387,-0.7387,-0.7357,-0.7356,-0.7355,-0.7354,-0.7354,-0.7355,-0.7357,-0.7387,0,0,-0.736,-0.736,0,0,0,0,0,0,0,0,-0.7372,-0.7373,-0.7376,-0.7375,-0.7373,-0.7371,-0.738,-0.7387,-0.7358,-0.7363,-0.7355,-0.7353,-0.7361,-0.7362,-0.7364,-0.7387,-0.7387,-0.736,-0.7361,-0.7361,-0.7361,0,0,0,0,0,0,0,-0.7372,-0.7373,-0.7388,-0.7376,-0.7374,-0.7367,-0.7367,-0.7381,-0.7369,-0.7363,-0.736,-0.736,-0.736,-0.7363,-0.7364,-0.7387,-0.736,-0.7361,-0.7362,-0.7362,-0.7433,-0.7435,0,0,0,0,0,0,-0.7374,-0.7373,-0.7388,-0.7388,-0.737,-0.7369,-0.7368,-0.7373,-0.7369,-0.7367,-0.7361,-0.7359,-0.7362,-0.7363,-0.7364,-0.7398,-0.7361,-0.7362,-0.7363,-0.7432,-0.7434,-0.7435,0,0,0,0,0,0,-0.7373,-0.7375,-0.7389,-0.738,-0.7381,-0.737,-0.7376,-0.7374,-0.7376,-0.7368,-0.7366,-0.7366,-0.7361,-0.7362,-0.7381,-0.7398,-0.7363,-0.7364,-0.7431,-0.7433,-0.7434,-0.7468,0,0,0,0,0,0,-0.7373,-0.7375,-0.7386,-0.7381,-0.7382,-0.7405,-0.7377,-0.7374,-0.7378,-0.7375,-0.7372,-0.737,-0.736,-0.738,-0.7382,-0.7399,-0.7365,-0.7429,-0.7432,-0.7434,-0.7466,-0.7471,-0.7476,0,0,0,0,0,-0.7372,-0.7397,-0.7387,-0.7389,-0.7395,-0.7406,-0.7407,-0.7395,-0.738,-0.7391,-0.7385,-0.737,-0.7396,-0.7382,-0.7384,-0.7402,-0.7428,-0.7431,-0.7434,-0.7463,-0.747,-0.7476,0,0,0,0,0,0,-0.7406,-0.7396,-0.7385,-0.7408,-0.7408,-0.7401,-0.7415,-0.7402,-0.7407,-0.7404,-0.7389,-0.7388,-0.7409,-0.7407,-0.7392,-0.7431,-0.7409,-0.7413,-0.7431,-0.7437,-0.7442,-0.7442,-0.7365,0,0,0,0,0,-0.7415,-0.7425,-0.7416,-0.7437,-0.7438,-0.7426,-0.7431,-0.7421,-0.7421,-0.7421,-0.7417,-0.7418,-0.7426,-0.7431,-0.7438,-0.7465,-0.7464,-0.7478,-0.7484,-0.7488,-0.7491,-0.7505,-0.7511,-0.7444,-0.7444,-0.7444,0,0,-0.7436,-0.7432,-0.7439,-0.7444,-0.7443,-0.7453,-0.7427,-0.7439,-0.7446,-0.7423,-0.744,-0.7437,-0.7437,-0.746,-0.747,-0.7459,-0.7509,-0.7491,-0.7495,-0.7496,-0.7508,-0.7514,-0.752,-0.7446,-0.7446,-0.7445,0,0,-0.748,-0.7477,-0.7494,-0.7494,-0.7492,-0.7484,-0.7488,-0.7483,-0.748,-0.7497,-0.7479,-0.7488,-0.7503,-0.7503,-0.7505,-0.7548,-0.7535,-0.7551,-0.7577,-0.7591,-0.7596,-0.7601,-0.7616,-0.7621,-0.7554,-0.7554,-0.7554,0,-0.7506,-0.752,-0.7505,-0.7518,-0.7521,-0.7499,-0.7516,-0.7517,-0.7518,-0.752,-0.7508,-0.7525,-0.7524,-0.7546,-0.7556,-0.7559,-0.7563,-0.7551,-0.7597,-0.7601,-0.7605,-0.7619,-0.7625,-0.7556,-0.7556,-0.7556,-0.7555,0,-0.7552,-0.7563,-0.7577,-0.7577,-0.7582,-0.7597,-0.7585,-0.7591,-0.758,-0.7574,-0.7591,-0.7589,-0.7594,-0.7599,-0.759,-0.762,-0.7613,-0.7599,-0.7577,-0.7614,-0.7627,-0.7632,-0.7559,-0.7558,-0.7558,-0.7557,0,0,-0.7617,-0.7609,-0.7614,-0.7614,-0.761,-0.7618,-0.7632,-0.7637,-0.7643,-0.7644,-0.7656,-0.7668,-0.7654,-0.7657,-0.7647,-0.7659,-0.7693,-0.7643,-0.7643,-0.7652,-0.7726,-0.7737,-0.7743,-0.7684,-0.7685,-0.7685,-0.7726,0,-0.7659,-0.7682,-0.7668,-0.7694,-0.7703,-0.7682,-0.7694,-0.7694,-0.7688,-0.7695,-0.7689,-0.7698,-0.768,-0.7681,-0.7692,-0.7686,-0.7707,-0.7683,-0.7695,-0.7695,-0.7695,-0.775,-0.7761,-0.78,-0.7731,-0.7732,-0.7732,0,-0.771,-0.7713,-0.7739,-0.7733,-0.7736,-0.7747,-0.775,-0.7758,-0.7756,-0.7751,-0.7754,-0.7741,-0.7755,-0.7733,-0.7752,-0.7736,-0.774,-0.7738,-0.7739,-0.774,-0.7716,-0.7752,-0.7812,-0.7817,-0.774,-0.774,-0.7739,0,-0.7754,-0.7765,-0.7781,-0.7782,-0.7775,-0.7783,-0.7781,-0.7779,-0.7782,-0.7785,-0.7788,-0.7792,-0.7795,-0.7799,-0.7788,-0.7774,-0.7809,-0.7786,-0.7805,-0.7806,-0.7814,-0.7813,-0.7875,-0.7816,-0.7816,-0.7816,-0.7816,0,-0.7802,-0.7819,-0.7801,-0.7811,-0.7829,-0.7814,-0.7832,-0.7828,-0.7826,-0.7835,-0.7818,-0.7827,-0.7812,-0.782,-0.7811,-0.7828,-0.7829,-0.7826,-0.7823,-0.7827,-0.7828,-0.783,-0.7827,-0.7818,-0.7817,-0.7817,-0.7817,0,-0.7855,-0.7843,-0.786,-0.7852,-0.785,-0.7864,-0.7857,-0.7867,-0.786,-0.7872,-0.7874,-0.7863,-0.7871,-0.786,-0.7868,-0.7862,-0.7885,-0.7878,-0.7885,-0.7883,-0.7902,-0.7901,-0.7967,-0.7975,-0.7912,-0.7912,-0.7913,0,-0.7886,-0.7898,-0.7891,-0.7895,-0.7894,-0.7902,-0.7905,-0.789,-0.7895,-0.7894,-0.7903,-0.791,-0.7914,-0.7928,-0.7921,-0.7927,-0.792,-0.7943,-0.7921,-0.7925,-0.7921,-0.792,-0.7921,-0.7948,-0.7949,-0.7949,-0.795,0,-0.7942,-0.7936,-0.7941,-0.7944,-0.7948,-0.795,-0.795,-0.7955,-0.794,-0.7946,-0.7953,-0.7957,-0.7964,-0.797,-0.7974,-0.7972,-0.7959,-0.7957,-0.7961,-0.7965,-0.7969,-0.7967,-0.7897,-0.7955,-0.7955,-0.7954,-0.7954,-0.7954,-0.7985,-0.7994,-0.7991,-0.7997,-0.7995,-0.7996,-0.8004,-0.7998,-0.8004,-0.8008,-0.7999,-0.8009,-0.8007,-0.801,-0.801,-0.8017,-0.8007,-0.8014,-0.8016,-0.8018,-0.802,-0.7967,-0.8018,-0.8018,-0.8018,-0.8018,-0.8017,0,-0.804,-0.8036,-0.8042,-0.8043,-0.8048,-0.8034,-0.8033,-0.8038,-0.8047,-0.8046,-0.805,-0.8059,-0.8065,-0.8059,-0.8064,-0.8071,-0.8065,-0.8073,-0.8072,-0.8072,-0.8029,-0.8025,-0.8078,-0.8078,-0.8078,-0.8078,-0.8078,-0.8078,-0.8069,-0.8084,-0.8078,-0.8092,-0.8088,-0.8097,-0.8098,-0.8099,-0.8098,-0.8108,-0.8113,-0.8108,-0.8105,-0.8109,-0.8114,-0.8112,-0.8115,-0.8125,-0.8121,-0.8081,-0.8075,-0.8069,-0.8065,-0.8126,-0.8126,-0.8163,-0.8163,-0.8163]},{"header":{"parameterUnit":"m.s-1","parameterCategory":1,"la1":30.2991,"la2":30.254,"lo1":-89.0895,"lo2":-89.0444,"dy":0.0017,"dx":0.0017,"nx":28,"ny":28,"refTime":"2024-11-27T03:00:00:Z","depth":0,"parameterNumber":3,"parameterNumberName":"V-component_of_WINDS"},"data":[0,0,0,0,0,0,0,0,0,0,0,0,0,0,0,0,0,0,0,0,0,0,0,0,0,0,0,0,0,0,0,0,0,0,0,0,0,0,0,0,0,0,0,0,0,0,0,0,0,0,0,0,0,0,0,0,0,0,-4.9958,-4.996,0,-5.017,-5.0172,-5.0174,-5.0189,-5.0186,-5.0184,-5.0182,-5.0392,-5.0399,-5.0407,0,0,0,0,0,0,0,0,0,0,0,0,0,-4.956,-4.9568,-4.9957,-4.996,-4.9963,-5.0169,-5.0172,-5.0175,-5.0189,-5.0186,-5.0183,-5.0181,-5.0389,-5.0399,-5.0408,0,0,0,0,0,0,0,0,0,0,0,0,0,-4.9748,-4.957,-4.9957,-4.9995,-5.0,-5.0169,-5.0172,-5.0176,-5.019,-5.0186,-5.0182,-5.0179,-5.0386,-5.0398,-5.0409,-5.0552,0,0,-5.0445,-5.045,0,0,0,0,0,0,0,0,-4.9738,-4.9763,-4.9986,-4.9992,-4.9999,-5.0149,-5.0109,-5.0302,-5.019,-5.0117,-5.0182,-5.0177,-5.0314,-5.0331,-5.0378,-5.0562,-5.0571,-5.0446,-5.0453,-5.0458,-5.0461,0,0,0,0,0,0,0,-4.9725,-4.9754,-5.0041,-4.999,-4.9997,-5.0,-5.0023,-5.0146,-5.0232,-5.0124,-5.0125,-5.015,-5.0316,-5.0367,-5.0383,-5.0574,-5.0446,-5.0456,-5.0463,-5.0468,-5.0888,-5.0892,0,0,0,0,0,0,-4.9705,-4.9743,-5.0034,-5.0047,-4.9857,-5.001,-5.0035,-5.0104,-5.0231,-5.0247,-5.0153,-5.015,-5.0349,-5.037,-5.0391,-5.0568,-5.0458,-5.0469,-5.0476,-5.0884,-5.0889,-5.0894,0,0,0,0,0,0,-4.9697,-4.9731,-5.0026,-4.9896,-4.9934,-5.002,-5.0098,-5.011,-5.0161,-5.0254,-5.0269,-5.019,-5.0347,-5.0374,-5.0513,-5.0576,-5.0474,-5.0485,-5.0879,-5.0886,-5.0892,-5.0923,0,0,0,0,0,0,-4.9685,-4.9728,-4.9784,-4.9897,-4.9941,-5.0146,-5.0102,-5.0117,-5.0182,-5.018,-5.0292,-5.0307,-5.0346,-5.0496,-5.0525,-5.059,-5.0494,-5.0874,-5.0882,-5.089,-5.0917,-5.093,-5.0941,0,0,0,0,0,-4.9671,-4.9782,-4.9786,-4.9822,-5.0013,-5.0149,-5.0174,-5.0219,-5.0187,-5.0244,-5.0304,-5.0303,-5.0564,-5.051,-5.0542,-5.0612,-5.087,-5.088,-5.0889,-5.0911,-5.0927,-5.094,0,0,0,0,0,0,-4.967,-4.9797,-4.9804,-4.9955,-5.0042,-5.0151,-5.0224,-5.0234,-5.0329,-5.0323,-5.0373,-5.0398,-5.0536,-5.0588,-5.0524,-5.0759,-5.0714,-5.073,-5.0719,-5.0735,-5.0747,-5.0731,-5.0504,0,0,0,0,0,-4.9688,-4.9791,-4.9895,-5.0019,-5.0062,-5.0136,-5.0197,-5.0225,-5.0315,-5.0351,-5.0421,-5.0508,-5.061,-5.0675,-5.0774,-5.0925,-5.095,-5.0989,-5.1001,-5.101,-5.1023,-5.1109,-5.1128,-5.0924,-5.0924,-5.0924,0,0,-4.9725,-4.9807,-4.9868,-5.0021,-5.0091,-5.0195,-5.0166,-5.0276,-5.0354,-5.0367,-5.0504,-5.0558,-5.0658,-5.0804,-5.0872,-5.0852,-5.1086,-5.1022,-5.1029,-5.1037,-5.1121,-5.114,-5.1157,-5.0931,-5.093,-5.0929,0,0,-4.9846,-4.9919,-5.0031,-5.0103,-5.0211,-5.026,-5.0287,-5.0397,-5.0435,-5.0573,-5.0586,-5.0678,-5.0852,-5.0924,-5.0982,-5.1135,-5.1138,-5.1166,-5.1227,-5.131,-5.1326,-5.1341,-5.1396,-5.1415,-5.1179,-5.1179,-5.1179,0,-4.9878,-5.0037,-5.0086,-5.0198,-5.0265,-5.0286,-5.04,-5.0467,-5.06,-5.0646,-5.0622,-5.0843,-5.0912,-5.1076,-5.1114,-5.116,-5.1193,-5.1152,-5.132,-5.1335,-5.1349,-5.1403,-5.1423,-5.1181,-5.1181,-5.1181,-5.1181,0,-5.0071,-5.0181,-5.0258,-5.0391,-5.0467,-5.0579,-5.0645,-5.0715,-5.0738,-5.0789,-5.093,-5.1014,-5.1131,-5.1172,-5.1193,-5.134,-5.1325,-5.131,-5.1266,-5.1371,-5.1422,-5.1442,-5.1185,-5.1184,-5.1183,-5.1183,0,0,-5.0194,-5.0357,-5.0384,-5.0446,-5.0569,-5.0654,-5.0768,-5.0885,-5.0945,-5.1038,-5.1134,-5.1283,-5.1272,-5.1338,-5.1368,-5.1441,-5.1558,-5.1418,-5.1421,-5.1442,-5.1727,-5.1737,-5.176,-5.1562,-5.1566,-5.1569,-5.1719,0,-5.0329,-5.0534,-5.0584,-5.0759,-5.0862,-5.0885,-5.0984,-5.1069,-5.1121,-5.1215,-5.1271,-5.1376,-5.1353,-5.1394,-5.1467,-5.1528,-5.1616,-5.1518,-5.1651,-5.1655,-5.1625,-5.1787,-5.1797,-5.1934,-5.1739,-5.1742,-5.1745,0,-5.0513,-5.0614,-5.08,-5.0913,-5.0958,-5.1046,-5.116,-5.125,-5.1348,-5.138,-5.1458,-5.1481,-5.1599,-5.155,-5.1714,-5.1647,-5.1704,-5.1743,-5.1749,-5.1763,-5.1706,-5.1805,-5.1979,-5.1999,-5.1777,-5.1774,-5.1772,0,-5.0586,-5.0767,-5.0903,-5.0955,-5.109,-5.1152,-5.121,-5.1305,-5.1374,-5.1473,-5.1518,-5.1627,-5.1687,-5.1772,-5.1824,-5.1783,-5.1984,-5.1939,-5.2014,-5.2013,-5.2054,-5.2051,-5.224,-5.2091,-5.2091,-5.2091,-5.209,0,-5.0731,-5.0844,-5.0938,-5.1021,-5.1149,-5.1206,-5.133,-5.1388,-5.1474,-5.1568,-5.1594,-5.1681,-5.1746,-5.1842,-5.1883,-5.2014,-5.204,-5.2069,-5.2079,-5.2067,-5.2064,-5.2105,-5.2097,-5.2096,-5.2095,-5.2094,-5.2093,0,-5.0832,-5.09,-5.105,-5.1167,-5.1199,-5.1288,-5.1388,-5.1469,-5.1523,-5.1643,-5.1674,-5.1758,-5.1873,-5.1934,-5.2077,-5.2105,-5.2252,-5.2255,-5.2219,-5.2223,-5.2295,-5.2288,-5.2518,-5.2551,-5.238,-5.2381,-5.2383,0,-5.092,-5.1009,-5.1137,-5.1204,-5.1265,-5.1371,-5.1443,-5.1503,-5.1576,-5.1696,-5.1763,-5.1881,-5.1978,-5.2161,-5.2234,-5.2344,-5.2351,-5.2424,-5.2367,-5.2354,-5.2353,-5.2347,-5.2357,-5.2433,-5.2435,-5.2436,-5.2437,0,-5.107,-5.11,-5.1204,-5.1321,-5.1407,-5.15,-5.1592,-5.1645,-5.172,-5.18,-5.1921,-5.1997,-5.2146,-5.2262,-5.2379,-5.2437,-5.245,-5.2455,-5.2479,-5.2467,-5.2443,-5.2458,-5.2247,-5.2449,-5.2448,-5.2447,-5.2446,-5.2446,-5.1168,-5.1249,-5.1353,-5.1468,-5.1545,-5.1632,-5.1716,-5.1782,-5.1884,-5.2012,-5.2041,-5.2168,-5.2266,-5.2424,-5.2487,-5.2586,-5.2571,-5.2605,-5.2613,-5.2621,-5.2624,-5.2428,-5.2607,-5.2607,-5.2607,-5.2607,-5.2607,0,-5.132,-5.1389,-5.1495,-5.1626,-5.1717,-5.1725,-5.1829,-5.1904,-5.2016,-5.2108,-5.2205,-5.2344,-5.2458,-5.2541,-5.2658,-5.2721,-5.273,-5.275,-5.2745,-5.2759,-5.263,-5.2599,-5.2741,-5.2741,-5.2741,-5.2741,-5.2741,-5.2741,-5.1409,-5.1547,-5.159,-5.1767,-5.1835,-5.1963,-5.2022,-5.2102,-5.2176,-5.2332,-5.2428,-5.2483,-5.2571,-5.2695,-5.28,-5.2821,-5.2863,-5.2882,-5.2904,-5.2782,-5.2768,-5.2754,-5.2725,-5.2891,-5.2891,-5.3025,-5.3026,-5.3027]}]]